Airport METAR Information

LTBA 220720Z 08010KT 050V110 9999 FEW035 18/07 Q1024 NOSIG

VATSIM Livefeed

Card image cap

ATC Bookings

No position booked

Card image cap

Active ATC

No controllers online

Blog

Read our latest news and get to know us better.